Hundvaag 1 weather for Jul 1993
Month no. 73
Obs.
Da.
Temp. Dew Point Precip. Wind
Speed
Wind gusts Cloud cover Press. Humidity Wind dir. Sunny OPT
01.07.1993 11,3   0,3                
02.07.1993 13,3   0,0             1  
03.07.1993 12,2   0,0                
04.07.1993 15,1   5,9                
05.07.1993 9,1   2,9                
06.07.1993 9,4   5,2                
07.07.1993 9,7   15,5             1  
08.07.1993 9,1   1,2                
09.07.1993 11,0   8,3             1  
10.07.1993 12,0   9,8             1  
11.07.1993 12,5   6,6                
12.07.1993 11,3   4,8                
13.07.1993 10,0   10,6                
14.07.1993 11,0   0,3             1  
15.07.1993 12,9   0,0                
16.07.1993 11,0   0,0                
17.07.1993 15,0   0,1                
18.07.1993 12,7   0,0                
19.07.1993 11,0   0,0             1  
20.07.1993 11,0   0,0                
21.07.1993 12,0   0,0                
22.07.1993 12,0   0,4                
23.07.1993 12,0   0,4                
24.07.1993 13,8   0,0                
25.07.1993 14,2   0,8             1  
26.07.1993 14,2   0,0             1  
27.07.1993 12,1   3,9             1  
28.07.1993 11,5   0,0                
29.07.1993 12,7   1,2             1  
30.07.1993 13,2   5,2                
31.07.1993 15,0   9,1             1  
Avrg/Sum 12,0   92,5             11